ZQ-2E R/B

基本信息
目录编号:
69095
目录名称:
ZQ-2E R/B
国际标识:
2026-105A
轨道中心:
EARTH
物体状态:
在轨
发射日期:
2026-05-13 UTC
国别:
中国 (CN)
轨道信息
数据来源: 国际轨道数据
星历时间: 2026-09-05T05:51:36+0800
半长轴: 6803.006km
偏心率: 0.0333579
轨道倾角: 88.965°
近地点辐角: 350.629°
升交点赤经: 183.154°
平近点角: 8.884°
近地点: 197.935km
远地点: 651.803km
周期: 93.070分钟
每日圈数: 15.47218
详细信息
发射场:
JSC
轨道高度:
LEO
数据来源:
AOE Integration Group
参考系:
TEME
时间系统:
UTC
历元类型:
SGP4
2D轨道图
3D轨道图
轨道高度分析图
轨道倾角分析图
轨道综合分析图
查看轨道综合分析图